Regional Weather Roundup
Issued by NWS

Home | Current Version | Previous Version | Text Only | Print | Product List | Glossary Off
Versions: 1 2 3 4 5 6 7 8 9 10 11 12 13 14 15 16 17 18 19 20 21 22 23 24 25 26 27 28 29 30 31 32 33 34 35 36 37 38 39 40 41 42 43 44 45 46 47 48 49 50

000
ASUS43 KMPX 241701
RWRMN
WEATHER ROUNDUP FOR MINNESOTA
NATIONAL WEATHER SERVICE TWIN CITIES/CHANHASSEN MN
1200 PM CDT SAT JUN 24 2017


NOTE: "FAIR" INDICATES FEW OR NO CLOUDS BELOW 12,000 FEET WITH NO
SIGNIFICANT WEATHER AND/OR OBSTRUCTIONS TO VISIBILITY. N/A MEANS
CURRENT SKY AND/OR WEATHER CONDITIONS ARE NOT AVAILABLE.

MNZ060>063-068>070-241800-
   Twin Cities Metro

CITY           SKY/WX    TMP DP  RH WIND       PRES   REMARKS
TWIN CITIES    CLOUDY    64  40  41 W18G26    30.02R
ST PAUL        PTSUNNY   64  41  42 W21G29    30.02R
CRYSTAL        PTSUNNY   65  40  39 W13       30.00S
BLAINE         PTSUNNY   66  43  42 W16G26    30.00S
LAKEVILLE      MOSUNNY   63  43  48 W14G24    30.03S
EDEN PRAIRIE   CLOUDY    62  41  46 W14G23    30.03R
SOUTH ST PAUL  MOSUNNY   65  41  41 W15       30.02R
LAKE ELMO      FAIR      63  43  48 NW15G21   30.02S
$$
MNZ001>005-007-008-013>017-022>024-027-028-241800-
   Northwest Minnesota

CITY           SKY/WX    TMP DP  RH WIND       PRES   REMARKS
BEMIDJI        LGT RAIN  54  47  77 NW17      29.98R
HALLOCK        CLOUDY    55  54  94 NW12      29.98R FOG
ROSEAU         CLOUDY    54  48  82 W8        29.97R
WARROAD        CLOUDY    54  50  87 W9        29.97R
CROOKSTON      CLOUDY    55  46  71 NW21      30.02R
FOSSTON        PTSUNNY   55  45  67 NW9G17    30.01R
DETROIT LAKES  PTSUNNY   54  43  66 NW17G28   30.04R
MOORHEAD       MOSUNNY   57  45  62 NW17G28   30.05R
PARK RAPIDS    MOSUNNY   60  45  57 W13       29.99R
MAHNOMEN       CLOUDY    56  47  71 W16       30.02R
$$
MNZ006-009>011-018-025>026-241800-
   North Central Minnesota

CITY           SKY/WX    TMP DP  RH WIND       PRES   REMARKS
BAUDETTE       PTSUNNY   57  49  74 NW12      29.95R
FLAG ISLAND    CLOUDY    55  48  76 NW8       29.94R
INTL FALLS     CLOUDY    60  47  61 NW13      29.93R
WASKISH        PTSUNNY   61  48  63 W10G16    29.95S
BIG FORK       LGT RAIN  57  50  77 CALM      29.94S
LONGVILLE      PTSUNNY   59  45  58 NW8G17    29.97R
GRAND RAPIDS   CLOUDY    57  46  66 W6        29.96R
CRANE LAKE     CLOUDY    57  48  72 NW8       29.92S
ORR            DRIZZLE   55  46  71 W7        29.91R
COOK           RAIN      55  48  76 NW8       29.93R
WALKER         CLOUDY    56  44  64 NW12G17   29.97R
$$
MNZ012-019>021-037-241800-
   Northeast Minnesota

CITY           SKY/WX    TMP DP  RH WIND       PRES   REMARKS
DULUTH         CLOUDY    57  46  66 NW17G24   29.92R
ELY            CLOUDY    54  48  82 W9G17     29.90R
HIBBING        LGT RAIN  56  47  71 NW12      29.93R
EVELETH        PTSUNNY   58  42  57 NW15G21   29.93R
DULUTH HARBOR  CLOUDY    61  48  63 W16       29.93R
TWO HARBORS    CLOUDY    61  52  72 NW7       29.89R
SILVER BAY     CLOUDY    59  52  77 W6        29.88R
GRAND MARAIS     N/A     49  48  97 W5        29.86R
G MARAIS ARPRT CLOUDY    55  48  76 N6        29.87S
$$
MNZ029>031-032-039>041-046>048-054>057-064-241800-
   West Central Minnesota

CITY           SKY/WX    TMP DP  RH WIND       PRES   REMARKS
FERGUS FALLS   CLOUDY    55  48  76 NW14G20   30.03R
WHEATON        PTSUNNY   57  41  54 W16G22    30.08R
MORRIS         PTSUNNY   61  43  51 NW14G25   30.05R
ALEXANDRIA     PTSUNNY   53  45  74 W20G32    30.04R
ELBOW LAKE     PTSUNNY   56  46  68 W15       30.06R
WADENA         CLOUDY    54  46  76 NW10G17   30.01S
GLENWOOD       LGT RAIN  52  46  82 W12       30.05R
APPLETON       MOSUNNY   61  45  55 NW14G23   30.05S
BENSON         MOSUNNY   64  39  39 NW22      30.06R
ORTONVILLE     MOSUNNY   61  43  51 NW17G24   30.07R
MADISON        PTSUNNY   63  46  55 NW15G24   30.07S
WILLMAR        FAIR      61  50  67 W15G22    30.06R
$$
MNZ033>034-036-042>043-049>051-058-059-241800-
   Central Minnesota

CITY           SKY/WX    TMP DP  RH WIND       PRES   REMARKS
ST CLOUD       CLOUDY    62  41  46 W15G22    30.00S
SAUK CENTRE    PTSUNNY   59  41  52 NW26G32   30.04R
PAYNESVILLE    PTSUNNY   61  42  48 W10G17    30.03F
AITKIN         CLOUDY    55  43  62 NW7       29.96R
PINE RIVER     PTSUNNY   57  45  62 NW9       30.01R
BRAINERD       PTSUNNY   57  43  59 W16       29.99R
STAPLES        PTSUNNY   57  41  54 W16       30.00R
LONG PRAIRIE   RAIN      46  43  87 W12       30.05R VSB 1
LITTLE FALLS   CLOUDY    52  43  71 W9        30.01R
LITCHFIELD     CLOUDY    61  46  59 W13       30.04F
BUFFALO        CLOUDY    61  41  47 W14       30.04R
MAPLE LAKE     CLOUDY    63  46  54 W12       30.03S
HUTCHINSON     PTSUNNY   55  47  76 W13       30.07R
$$
MNZ037-044-045-052-053-241800-
   East Central Minnesota

CITY           SKY/WX    TMP DP  RH WIND       PRES   REMARKS
PRINCETON      PTSUNNY   63  43  48 W12       30.00S
MORA           MOSUNNY   63  43  48 W14       29.99S
CAMBRIDGE      PTSUNNY   63  45  51 W12G17    29.98S
RUSH CITY      MOSUNNY   63  43  48 W7        29.99R
MOOSE LAKE     CLOUDY    61  43  51 W13       29.94R
HINCKLEY       PTSUNNY   63  43  48 W7G16     29.97R
CLOQUET        CLOUDY    57  43  58 NW12G20   29.94R
MCGREGOR       MOSUNNY   61  43  51 W7G17     29.96R
$$
MNZ071>073-080-081-089-090-097-098-241800-
   Southwest Minnesota

CITY           SKY/WX    TMP DP  RH WIND       PRES   REMARKS
MONTEVIDEO     PTSUNNY   63  46  55 N16G25    30.07R
GRANITE FALLS  MOSUNNY   65  46  51 W10G20    30.08S
CANBY          PTSUNNY   64  43  45 W15G26    30.08R
MARSHALL       CLOUDY    64  45  49 NW18G25   30.06S
REDWOOD FALLS  MOSUNNY   62  44  51 N7        30.06S
OLIVIA         CLOUDY    59  45  58 W9        30.05S
PIPESTONE      MOSUNNY   66  39  37 NW22G32   30.08R
WINDOM         MOSUNNY   66  39  37 W18G28    30.05F
WORTHINGTON    PTSUNNY   66  40  38 W26G38    30.07F
JACKSON        MOSUNNY   68  39  34 W22G28    30.07F
TRACY          CLOUDY    66  44  44 W17G28    30.06S
SLAYTON        PTSUNNY   65  17  16 W22G30    30.07F
$$
MNZ065>067-074>077-082>085-091>093-241800-
   South Central Minnesota

CITY           SKY/WX    TMP DP  RH WIND       PRES   REMARKS
MANKATO        PTSUNNY   62  40  44 W13G22    30.06S
NEW ULM        PTSUNNY   63  41  45 N10       30.06S
ST JAMES       LGT RAIN  61  45  55 W20       30.08R
FAIRMONT       SUNNY     66  41  40 NW18      30.08F
GLENCOE        CLOUDY    59  47  65 NW21      30.06S
FARIBAULT      MOSUNNY   64  43  45 W17G24    30.05S
OWATONNA       SUNNY     64  43  45 W17G28    30.05F
WASECA         MOSUNNY   63  41  45 W18G28    30.07S
ALBERT LEA     MOSUNNY   64  41  42 NW10G16   30.07S
$$
MNZ078>079-086>088-094>096-241800-
   Southeast Minnesota

CITY           SKY/WX    TMP DP  RH WIND       PRES   REMARKS
ROCHESTER      SUNNY     63  45  51 W18G26    30.06R
RED WING       MOSUNNY   66  37  34 W12G18    30.01S
STANTON        PTSUNNY   64  43  45 NW15G22   30.03S
DODGE CENTER   SUNNY     63  41  45 NW17G25   30.05F
WINONA         MOSUNNY   63  43  48 NW15G25   30.02S
AUSTIN         SUNNY     63  43  48 W14       30.06S
PRESTON        SUNNY     62  44  52 W18       30.06S
$$
ABBREVIATIONS USED IN REMARKS
   TC - TEMPERATURES IN CELSIUS
  WCI - WIND CHILL INDEX
   HX - HEAT INDEX
  VSB - VISIBILITY
$$




USA.gov is the U.S. government's official web portal to all federal, state and local government web resources and services.